Flag for Italy Weather past 2 weeks in Palermo, Italy

Now
77 °F

Clear.


Feels Like: 79 °F
Forecast: 77 / 85 °F
Wind: 2 mph from South

Location: Palermo / Punta Raisi

Current Time: Aug 28, 2015 at 4:23:07 AM

Latest Report: Aug 28, 2015 at 3:50 AM


Visibility: 10 mi

Pressure: 30.04 "Hg

Humidity: 79%

Dew point: 70 °F

Location of PalermoLocation

Historic Weather in Palermo — Graph

°F

Palermo temperature yesterday

Maximum temperature yesterday: 84 °F (at 12:20 PM)
Minimum temperature yesterday: 73 °F (at 5:20 AM)
Average temperature yesterday: 80 °F

Past Weeks' High & Low Weather Summary

 TemperatureHumidityPressure
High90 °F (Aug 24, 2:20 PM)94% (Aug 14, 7:20 AM)30.12 "Hg (Aug 14, 7:20 AM)
Low70 °F (Aug 18, 6:20 AM)29% (Aug 25, 1:20 AM)29.80 "Hg (Aug 16, 7:20 AM)
Average80 °F66%29.98 "Hg
* Reported Aug 13 2:20 AM — Aug 28 2:50 AM, Palermo, Weather by CustomWeather, © 2015

Note: Actual official high and low records may vary slightly from our data, if they occured in-between our weather recording intervals... More about our weather records

Advertising

Palermo weather history for previous 24 hours

 ConditionsComfort  
Time TempWeatherWind HumidityBarometerVisibility
2:50 AM
Fri, Aug 28
79 °FPassing clouds.5 mph70%30.04 "HgN/A
2:20 AM79 °FPassing clouds.6 mph74%30.07 "HgN/A
1:50 AM79 °FClear.9 mph74%30.07 "Hg10 mi
1:20 AM79 °FClear.7 mph79%30.07 "Hg10 mi
12:50 AM79 °FPassing clouds.3 mph74%30.07 "HgN/A
12:20 AM81 °FClear.8 mph70%30.07 "Hg10 mi
11:50 PM
Thu, Aug 27
81 °FClear.9 mph79%30.07 "Hg10 mi
11:20 PM81 °FClear.13 mph79%30.07 "Hg10 mi
10:50 PM81 °FClear.12 mph74%30.04 "Hg10 mi
10:20 PM81 °FClear.12 mph74%30.04 "Hg10 mi
9:50 PM81 °FClear.6 mph74%30.04 "Hg10 mi
9:20 PM82 °FPassing clouds.3 mph70%30.04 "HgN/A
8:50 PM82 °FPassing clouds.3 mph70%30.01 "HgN/A
8:20 PM81 °FSunny.9 mph74%30.01 "Hg10 mi
7:50 PM81 °FSunny.15 mph74%30.01 "Hg10 mi
7:20 PM82 °FSunny.16 mph70%30.01 "Hg10 mi
6:50 PM82 °FSunny.16 mph70%30.01 "Hg10 mi
6:20 PM82 °FSunny.17 mph70%30.01 "Hg10 mi
5:50 PM82 °FSunny.21 mph70%30.01 "Hg10 mi
5:20 PM82 °FSunny.21 mph70%30.01 "Hg10 mi
4:50 PM82 °FSunny.21 mph70%30.01 "Hg10 mi
4:20 PM84 °FSunny.21 mph66%30.01 "Hg10 mi
3:50 PM84 °FSunny.21 mph66%30.01 "Hg10 mi
3:20 PM84 °FSunny.20 mph66%30.01 "Hg10 mi
2:50 PM84 °FPassing clouds.21 mph66%30.01 "HgN/A
2:20 PM84 °FPassing clouds.22 mph66%30.01 "HgN/A
1:50 PM84 °FSunny.21 mph66%30.04 "Hg10 mi
1:20 PM84 °FPassing clouds.17 mph66%30.04 "HgN/A
12:50 PM84 °FPassing clouds.15 mph66%30.04 "HgN/A
12:20 PM84 °FPassing clouds.14 mph66%30.04 "HgN/A
11:50 AM82 °FPassing clouds.13 mph66%30.04 "HgN/A
11:20 AM82 °FPassing clouds.10 mph70%30.07 "HgN/A
10:50 AM81 °FPassing clouds.3 mph70%30.07 "HgN/A
10:20 AM81 °FSunny.3 mph70%30.04 "Hg10 mi
9:50 AM81 °FSunny.3 mph66%30.04 "Hg10 mi
9:20 AM79 °FSunny.5 mph70%30.04 "Hg10 mi
8:50 AM81 °FSunny.2 mph70%30.04 "Hg10 mi
8:20 AM79 °FSunny.3 mph70%30.04 "Hg10 mi
7:50 AM77 °FSunny.3 mph74%30.01 "Hg10 mi
7:20 AM73 °FClear.5 mph78%30.01 "Hg10 mi
6:50 AM73 °FClear.2 mph78%30.01 "Hg10 mi
6:20 AM73 °FClear.3 mph78%29.98 "Hg10 mi
5:50 AM73 °FClear.2 mph74%29.98 "Hg10 mi
5:20 AM73 °FClear.5 mph78%29.98 "Hg10 mi
Weather by CustomWeather, © 2015

See weather overviewHow to use our weather pages